Regional Weather Roundup
Issued by NWS Spokane, WA

Home | Current Version | Previous Version | Text Only | Print | Product List | Glossary On
Versions: 1 2 3 4 5 6 7 8 9 10 11 12 13 14 15 16 17 18 19 20 21 22 23 24 25 26 27 28 29 30 31 32 33 34 35 36 37 38 39 40 41 42 43 44 45 46 47 48 49 50
000
NZUS01 KOTX 061810
RWROTX
EASTERN WASHINGTON/NORTHERN IDAHO ROUNDUP
NATIONAL WEATHER SERVICE, SPOKANE WA
1100 AM PDT WED MAY 06 2015

Note: "fair" indicated few or no clouds below 12,000 feet with no
significant weather and/or obstructions to visibility.

...NORTHEAST WASHINGTON AND NORTHERN IDAHO PANHANDLE...

CITY           SKY/WX    TMP DP  RH WIND       PRES   REMARKS
SPOKANE INTL   MOSUNNY   52  30  43 SW3       29.98F
SPOKANE DOWNTO MOSUNNY   55  29  36 S8        30.00S
COEUR D ALENE  SUNNY     54  28  37 SW10      29.98F
DEER PARK      SUNNY     53  31  42 VRB3      29.99S
SANDPOINT      SUNNY     52  34  50 SE7       29.98F
BONNERS FERRY  FAIR      54  32  43 W6        29.97F

...SOUTHEAST WASHINGTON AND SOUTHERN IDAHO PANHANDLE...

CITY           SKY/WX    TMP DP  RH WIND       PRES   REMARKS
WALLA WALLA    PTSUNNY   56  32  40 S10       30.01S
PULLMAN/MOSCOW PTSUNNY   52  34  50 W8        30.00F
LEWISTON       CLOUDY    56  32  40 VRB3      29.98F
LOWELL           N/A     58  33  39 S6        29.94F

...COLUMBIA BASIN...

CITY           SKY/WX    TMP DP  RH WIND       PRES   REMARKS
EPHRATA        SUNNY     60  29  30 N14G20    29.98S
MOSES LAKE     PTSUNNY   56  32  40 NE3       30.00S
TRI CITIES     SUNNY     59  32  36 VRB6      30.03S
HERMISTON      CLOUDY    57  33  40 W8        30.01F
PENDLETON      SUNNY     54  33  45 W9        30.00S

...EAST SLOPES CASCADES...

CITY           SKY/WX    TMP DP  RH WIND       PRES   REMARKS
THE DALLES     MOSUNNY   61  36  39 NW13G21   30.03F
YAKIMA         SUNNY     60  27  28 N3        30.02S
ELLENSBURG     SUNNY     58  29  33 NW13      30.00S
WENATCHEE      SUNNY     59  25  27 NW14      30.00F
OMAK           MOSUNNY   59  33  37 NE17G25   30.01F

...SOUTHERN BRITISH COLUMBIA...

CITY           SKY/WX    TMP DP  RH WIND       PRES   REMARKS
CASTLEGAR      MOSUNNY   54  37  54 N10       29.99F
CRANBROOK      MOSUNNY   52  23  32 VRB3      29.94F

...WESTERN MONTANA...

CITY           SKY/WX    TMP DP  RH WIND       PRES   REMARKS
MISSOULA       SUNNY     55  22  27 VRB3      29.93F

...NEIGHBORING CITIES...

CITY           SKY/WX    TMP DP  RH WIND       PRES   REMARKS
SEATTLE        CLOUDY    50  43  77 N7        30.15S
CALGARY        PTSUNNY   43  23  45 N22G29    29.99S



USA.gov is the U.S. government's official web portal to all federal, state and local government web resources and services.